Location: Emblem
(62.4273°N, 6.4710°E)
Time: 07:05:35
(UTC+02:00)

Transit 2A - Pass Details

Date: 06 March 2024
Orbit: 596 x 956 km, 66.7° (Epoch: 24 April)

Event Time Altitude Azimuth Distance (km) Brightness Sun altitude
Rises 20:07:59 0° 243° (WSW) 2,843 9.7 -14.1°
Reaches altitude 10° 20:10:11 10° 245° (WSW) 1,953 8.8 -14.4°
Maximum altitude 20:14:33 77° 332° (NNW) 647 5.7 -14.8°
Enters shadow 20:18:44 13° 59° (ENE) 1,889 7.7 -15.3°
